Time,TemperatureF,DewpointF,PressureIn,WindDirection,WindDirectionDegrees,WindSpeedMPH,WindSpeedGustMPH,Humidity,HourlyPrecipIn,Conditions,Clouds,dailyrainin,SoftwareType,DateUTC
2013-06-03 00:06:00,53.9,29.0,29.72,NNE,13,0.0,2.0,38,0.00,,,0.00,weatherlink.com 1.10,2013-06-03 07:06:00,
2013-06-03 00:21:00,52.8,29.0,29.72,NNE,13,0.0,1.0,40,0.00,,,0.00,weatherlink.com 1.10,2013-06-03 07:21:00,
2013-06-03 00:51:00,51.8,29.0,29.72,NNE,13,0.0,2.0,41,0.00,,,0.00,weatherlink.com 1.10,2013-06-03 07:51:00,
2013-06-03 01:06:00,51.6,29.0,29.72,NNE,13,0.0,2.0,42,0.00,,,0.00,weatherlink.com 1.10,2013-06-03 08:06:00,
2013-06-03 01:21:00,51.7,29.0,29.72,NNE,13,0.0,1.0,42,0.00,,,0.00,weatherlink.com 1.10,2013-06-03 08:21:00,
2013-06-03 01:36:00,51.2,29.0,29.72,NNE,13,0.0,2.0,42,0.00,,,0.00,weatherlink.com 1.10,2013-06-03 08:36:00,
2013-06-03 01:52:00,50.3,28.0,29.72,NNE,13,0.0,2.0,43,0.00,,,0.00,weatherlink.com 1.10,2013-06-03 08:52:00,
2013-06-03 02:06:00,49.9,29.0,29.72,NNE,13,0.0,1.0,44,0.00,,,0.00,weatherlink.com 1.10,2013-06-03 09:06:00,
2013-06-03 02:22:00,50.1,29.0,29.71,NNE,13,1.0,2.0,44,0.00,,,0.00,weatherlink.com 1.10,2013-06-03 09:22:00,
2013-06-03 02:37:00,49.7,29.0,29.71,NNE,13,1.0,2.0,45,0.00,,,0.00,weatherlink.com 1.10,2013-06-03 09:37:00,
2013-06-03 02:52:00,49.4,29.0,29.71,NNE,13,0.0,2.0,45,0.00,,,0.00,weatherlink.com 1.10,2013-06-03 09:52:00,
2013-06-03 03:07:00,48.8,29.0,29.71,NNE,13,0.0,2.0,47,0.00,,,0.00,weatherlink.com 1.10,2013-06-03 10:07:00,
2013-06-03 03:22:00,48.4,29.0,29.72,NNE,13,1.0,2.0,47,0.00,,,0.00,weatherlink.com 1.10,2013-06-03 10:22:00,
2013-06-03 03:37:00,47.8,29.0,29.73,NNE,13,0.0,2.0,48,0.00,,,0.00,weatherlink.com 1.10,2013-06-03 10:37:00,
2013-06-03 03:52:00,47.2,29.0,29.73,NNE,13,0.0,2.0,49,0.00,,,0.00,weatherlink.com 1.10,2013-06-03 10:52:00,
2013-06-03 04:07:00,47.0,30.0,29.74,NNE,13,0.0,2.0,51,0.00,,,0.00,weatherlink.com 1.10,2013-06-03 11:07:00,
2013-06-03 04:22:00,46.6,29.0,29.74,NNE,13,0.0,3.0,51,0.00,,,0.00,weatherlink.com 1.10,2013-06-03 11:22:00,
2013-06-03 04:37:00,46.1,30.0,29.75,NNE,13,1.0,2.0,53,0.00,,,0.00,weatherlink.com 1.10,2013-06-03 11:37:00,
2013-06-03 04:52:00,45.9,30.0,29.75,NNE,13,0.0,3.0,54,0.00,,,0.00,weatherlink.com 1.10,2013-06-03 11:52:00,
2013-06-03 05:07:00,45.9,30.0,29.75,NNE,13,2.0,4.0,54,0.00,,,0.00,weatherlink.com 1.10,2013-06-03 12:07:00,
2013-06-03 05:22:00,45.5,30.0,29.75,NNE,13,0.0,2.0,54,0.00,,,0.00,weatherlink.com 1.10,2013-06-03 12:22:00,
2013-06-03 05:37:00,45.1,30.0,29.77,NNE,13,0.0,1.0,55,0.00,,,0.00,weatherlink.com 1.10,2013-06-03 12:37:00,
2013-06-03 05:52:00,45.1,30.0,29.77,NNE,13,0.0,3.0,56,0.00,,,0.00,weatherlink.com 1.10,2013-06-03 12:52:00,
2013-06-03 06:07:00,45.8,31.0,29.78,NNE,13,0.0,2.0,56,0.00,,,0.00,weatherlink.com 1.10,2013-06-03 13:07:00,
2013-06-03 06:22:00,46.7,32.0,29.78,NNE,13,0.0,1.0,57,0.00,,,0.00,weatherlink.com 1.10,2013-06-03 13:22:00,
2013-06-03 06:37:00,47.8,33.0,29.79,NNE,13,0.0,1.0,58,0.00,,,0.00,weatherlink.com 1.10,2013-06-03 13:37:00,
2013-06-03 06:52:00,50.3,36.0,29.79,NNE,13,0.0,0.0,58,0.00,,,0.00,weatherlink.com 1.10,2013-06-03 13:52:00,
2013-06-03 07:07:00,52.7,36.0,29.79,NNE,13,0.0,0.0,53,0.00,,,0.00,weatherlink.com 1.10,2013-06-03 14:07:00,
2013-06-03 07:22:00,56.0,35.0,29.79,South,175,2.0,4.0,45,0.00,,,0.00,weatherlink.com 1.10,2013-06-03 14:22:00,
2013-06-03 07:37:00,60.8,33.0,29.79,South,175,0.0,3.0,35,0.00,,,0.00,weatherlink.com 1.10,2013-06-03 14:37:00,
2013-06-03 07:53:00,63.6,31.0,29.80,SSW,193,1.0,4.0,29,0.00,,,0.00,weatherlink.com 1.10,2013-06-03 14:53:00,
2013-06-03 08:08:00,65.7,29.0,29.80,SSW,207,6.0,7.0,25,0.00,,,0.00,weatherlink.com 1.10,2013-06-03 15:08:00,
2013-06-03 08:23:00,66.9,29.0,29.81,West,264,2.0,9.0,24,0.00,,,0.00,weatherlink.com 1.10,2013-06-03 15:23:00,
2013-06-03 08:38:00,67.6,28.0,29.81,SSW,193,3.0,6.0,23,0.00,,,0.00,weatherlink.com 1.10,2013-06-03 15:38:00,
2013-06-03 08:53:00,68.7,28.0,29.81,South,170,2.0,7.0,22,0.00,,,0.00,weatherlink.com 1.10,2013-06-03 15:53:00,
2013-06-03 09:08:00,68.9,28.0,29.80,WSW,245,3.0,8.0,22,0.00,,,0.00,weatherlink.com 1.10,2013-06-03 16:08:00,
2013-06-03 09:23:00,70.0,28.0,29.81,SW,221,1.0,8.0,21,0.00,,,0.00,weatherlink.com 1.10,2013-06-03 16:23:00,
2013-06-03 09:38:00,70.4,27.0,29.81,WSW,244,2.0,9.0,20,0.00,,,0.00,weatherlink.com 1.10,2013-06-03 16:38:00,
2013-06-03 09:53:00,70.5,27.0,29.81,WSW,245,4.0,11.0,20,0.00,,,0.00,weatherlink.com 1.10,2013-06-03 16:53:00,
2013-06-03 10:08:00,71.2,28.0,29.81,WSW,252,4.0,10.0,20,0.00,,,0.00,weatherlink.com 1.10,2013-06-03 17:08:00,
2013-06-03 10:23:00,71.8,27.0,29.82,South,179,4.0,9.0,19,0.00,,,0.00,weatherlink.com 1.10,2013-06-03 17:23:00,
2013-06-03 10:38:00,72.6,28.0,29.82,SE,139,2.0,9.0,19,0.00,,,0.00,weatherlink.com 1.10,2013-06-03 17:38:00,
2013-06-03 10:53:00,73.5,29.0,29.82,WSW,245,7.0,7.0,19,0.00,,,0.00,weatherlink.com 1.10,2013-06-03 17:53:00,
2013-06-03 11:08:00,74.1,28.0,29.82,South,177,2.0,8.0,18,0.00,,,0.00,weatherlink.com 1.10,2013-06-03 18:08:00,
2013-06-03 11:23:00,75.2,29.0,29.82,West,277,5.0,8.0,18,0.00,,,0.00,weatherlink.com 1.10,2013-06-03 18:23:00,
2013-06-03 11:38:00,74.9,27.0,29.82,South,184,0.0,9.0,17,0.00,,,0.00,weatherlink.com 1.10,2013-06-03 18:38:00,
2013-06-03 11:53:00,75.9,28.0,29.81,SSW,203,2.0,8.0,17,0.00,,,0.00,weatherlink.com 1.10,2013-06-03 18:53:00,
2013-06-03 12:08:00,76.5,27.0,29.81,WSW,254,6.0,14.0,16,0.00,,,0.00,weatherlink.com 1.10,2013-06-03 19:08:00,
2013-06-03 12:38:00,77.1,26.0,29.80,WSW,251,5.0,7.0,15,0.00,,,0.00,weatherlink.com 1.10,2013-06-03 19:38:00,
2013-06-03 12:53:00,76.2,27.0,29.79,SW,215,5.0,10.0,16,0.00,,,0.00,weatherlink.com 1.10,2013-06-03 19:53:00,
2013-06-03 13:08:00,76.3,27.0,29.79,South,191,2.0,8.0,16,0.00,,,0.00,weatherlink.com 1.10,2013-06-03 20:08:00,
2013-06-03 13:23:00,76.9,27.0,29.79,WSW,255,2.0,9.0,16,0.00,,,0.00,weatherlink.com 1.10,2013-06-03 20:23:00,
2013-06-03 13:38:00,78.1,27.0,29.79,WSW,257,7.0,12.0,15,0.00,,,0.00,weatherlink.com 1.10,2013-06-03 20:38:00,
2013-06-03 13:53:00,77.6,26.0,29.79,East,79,3.0,16.0,15,0.00,,,0.00,weatherlink.com 1.10,2013-06-03 20:53:00,
2013-06-03 14:08:00,78.1,27.0,29.79,SW,236,4.0,9.0,15,0.00,,,0.00,weatherlink.com 1.10,2013-06-03 21:08:00,
2013-06-03 14:24:00,78.6,25.0,29.79,WSW,256,4.0,10.0,14,0.00,,,0.00,weatherlink.com 1.10,2013-06-03 21:24:00,
2013-06-03 14:38:00,79.6,26.0,29.79,SSW,198,0.0,6.0,14,0.00,,,0.00,weatherlink.com 1.10,2013-06-03 21:38:00,
2013-06-03 14:55:00,79.3,24.0,29.79,SSW,203,1.0,12.0,13,0.00,,,0.00,weatherlink.com 1.10,2013-06-03 21:55:00,
2013-06-03 15:09:00,80.3,25.0,29.78,West,262,6.0,6.0,13,0.00,,,0.00,weatherlink.com 1.10,2013-06-03 22:09:00,
2013-06-03 15:24:00,80.5,25.0,29.78,SSW,212,3.0,10.0,13,0.00,,,0.00,weatherlink.com 1.10,2013-06-03 22:24:00,
2013-06-03 15:39:00,80.9,26.0,29.78,SW,219,4.0,8.0,13,0.00,,,0.00,weatherlink.com 1.10,2013-06-03 22:39:00,
2013-06-03 15:54:00,80.3,25.0,29.78,WSW,245,2.0,6.0,13,0.00,,,0.00,weatherlink.com 1.10,2013-06-03 22:54:00,
2013-06-03 16:09:00,80.3,25.0,29.77,South,186,3.0,10.0,13,0.00,,,0.00,weatherlink.com 1.10,2013-06-03 23:09:00,
2013-06-03 16:24:00,80.7,25.0,29.77,SSW,210,1.0,8.0,13,0.00,,,0.00,weatherlink.com 1.10,2013-06-03 23:24:00,
2013-06-03 16:39:00,80.6,25.0,29.77,SW,234,4.0,9.0,13,0.00,,,0.00,weatherlink.com 1.10,2013-06-03 23:39:00,
2013-06-03 16:54:00,80.0,27.0,29.77,SW,215,4.0,8.0,14,0.00,,,0.00,weatherlink.com 1.10,2013-06-03 23:54:00,
2013-06-03 17:09:00,78.8,26.0,29.77,WSW,255,3.0,5.0,14,0.00,,,0.00,weatherlink.com 1.10,2013-06-04 00:09:00,
2013-06-03 17:24:00,78.2,25.0,29.77,SW,229,1.0,8.0,14,0.00,,,0.00,weatherlink.com 1.10,2013-06-04 00:24:00,
2013-06-03 17:39:00,77.9,25.0,29.77,East,95,0.0,5.0,14,0.00,,,0.00,weatherlink.com 1.10,2013-06-04 00:39:00,
2013-06-03 17:54:00,77.5,25.0,29.77,SSW,195,1.0,9.0,14,0.00,,,0.00,weatherlink.com 1.10,2013-06-04 00:54:00,
2013-06-03 18:09:00,76.9,26.0,29.77,WSW,238,1.0,6.0,15,0.00,,,0.00,weatherlink.com 1.10,2013-06-04 01:09:00,
2013-06-03 18:24:00,76.3,25.0,29.77,SSE,165,0.0,6.0,15,0.00,,,0.00,weatherlink.com 1.10,2013-06-04 01:24:00,
2013-06-03 18:39:00,75.6,26.0,29.78,South,191,3.0,9.0,16,0.00,,,0.00,weatherlink.com 1.10,2013-06-04 01:39:00,
2013-06-03 18:54:00,74.7,27.0,29.79,SW,225,0.0,4.0,17,0.00,,,0.00,weatherlink.com 1.10,2013-06-04 01:54:00,
2013-06-03 19:09:00,73.9,28.0,29.79,South,188,1.0,2.0,18,0.00,,,0.00,weatherlink.com 1.10,2013-06-04 02:09:00,
2013-06-03 19:24:00,73.0,26.0,29.80,South,184,1.0,5.0,17,0.00,,,0.00,weatherlink.com 1.10,2013-06-04 02:24:00,
2013-06-03 19:39:00,72.0,26.0,29.80,South,189,0.0,2.0,18,0.00,,,0.00,weatherlink.com 1.10,2013-06-04 02:39:00,
2013-06-03 19:54:00,70.7,26.0,29.80,South,189,0.0,2.0,19,0.00,,,0.00,weatherlink.com 1.10,2013-06-04 02:54:00,
2013-06-03 20:09:00,69.4,27.0,29.81,South,189,0.0,1.0,20,0.00,,,0.00,weatherlink.com 1.10,2013-06-04 03:09:00,
2013-06-03 20:24:00,67.6,27.0,29.81,South,189,0.0,0.0,22,0.00,,,0.00,weatherlink.com 1.10,2013-06-04 03:24:00,
2013-06-03 20:39:00,65.5,27.0,29.82,South,189,0.0,1.0,23,0.00,,,0.00,weatherlink.com 1.10,2013-06-04 03:39:00,
2013-06-03 20:54:00,63.7,27.0,29.83,South,189,0.0,1.0,25,0.00,,,0.00,weatherlink.com 1.10,2013-06-04 03:54:00,
2013-06-03 21:09:00,61.8,27.0,29.84,South,189,0.0,1.0,27,0.00,,,0.00,weatherlink.com 1.10,2013-06-04 04:09:00,
2013-06-03 21:24:00,60.1,27.0,29.84,South,189,0.0,1.0,28,0.00,,,0.00,weatherlink.com 1.10,2013-06-04 04:24:00,
2013-06-03 21:39:00,58.5,26.0,29.85,South,189,0.0,1.0,29,0.00,,,0.00,weatherlink.com 1.10,2013-06-04 04:39:00,
2013-06-03 21:54:00,57.0,26.0,29.85,South,189,0.0,1.0,30,0.00,,,0.00,weatherlink.com 1.10,2013-06-04 04:54:00,
2013-06-03 22:09:00,55.8,25.0,29.85,South,189,0.0,1.0,31,0.00,,,0.00,weatherlink.com 1.10,2013-06-04 05:09:00,
2013-06-03 22:24:00,54.8,26.0,29.86,South,189,0.0,1.0,33,0.00,,,0.00,weatherlink.com 1.10,2013-06-04 05:24:00,
2013-06-03 22:39:00,54.2,25.0,29.85,South,189,0.0,0.0,33,0.00,,,0.00,weatherlink.com 1.10,2013-06-04 05:39:00,
2013-06-03 22:54:00,53.2,25.0,29.85,South,189,0.0,0.0,34,0.00,,,0.00,weatherlink.com 1.10,2013-06-04 05:54:00,
2013-06-03 23:09:00,52.3,25.0,29.85,South,189,0.0,1.0,35,0.00,,,0.00,weatherlink.com 1.10,2013-06-04 06:09:00,
2013-06-03 23:24:00,51.5,25.0,29.86,South,189,0.0,2.0,36,0.00,,,0.00,weatherlink.com 1.10,2013-06-04 06:24:00,
2013-06-03 23:39:00,50.8,25.0,29.86,South,189,0.0,2.0,37,0.00,,,0.00,weatherlink.com 1.10,2013-06-04 06:39:00,
2013-06-03 23:54:00,50.3,25.0,29.86,South,189,1.0,2.0,38,0.00,,,0.00,weatherlink.com 1.10,2013-06-04 06:54:00,